Miscellaneous Local Product
Issued by NWS Hastings, NE

Home | Current Version | Previous Version | Graphics & Text | Print | Product List | Glossary Off
Versions: 1 2 3 4 5 6 7 8 9 10 11 12 13 14 15 16 17 18 19 20 21 22 23 24 25 26 27 28 29 30 31 32 33 34 35 36 37 38 39 40 41 42 43 44 45 46 47 48 49 50

000
AXUS43 KGID 170302
MISGRI

GID CWA HOURLY WEATHER ROUNDUP
NATIONAL WEATHER SERVICE HASTINGS NE
1000 PM CDT MON OCT 16 2017

NOTE: "FAIR" INDICATES FEW OR NO CLOUDS BELOW 12,000 FEET WITH NO
SIGNIFICANT WEATHER AND/OR OBSTRUCTIONS TO VISIBILITY.

...SOUTH CENTRAL NEBRASKA...

CITY           SKY/WX    TMP DP  RH WIND       PRES   REMARKS
GRAND ISLAND   PTCLDY    58  38  47 S15       30.08S
HASTINGS       PTCLDY    59  36  42 S9        30.11S
KEARNEY        CLOUDY    56  38  50 S12       30.10S
ORD            CLEAR     53  37  54 S6        30.05R
YORK           CLEAR     57  39  51 S10       30.11S
AURORA         PTCLDY    57  37  46 S12       30.10R
LEXINGTON      CLEAR     58  37  44 S7        30.08S
HOLDREGE       MOCLDY    58  38  47 S8        30.09S
HEBRON         PTCLDY    58  40  49 S9        30.15R

...NEBRASKA PANHANDLE...

CITY           SKY/WX    TMP DP  RH WIND       PRES   REMARKS
CHADRON        CLEAR     43  28  55 W7        30.13S
ALLIANCE       CLEAR     39  27  62 W6        30.16R WCI  35
SCOTTSBLUFF    CLEAR     43  27  53 N5        30.18R
SIDNEY         CLEAR     48  23  37 W3        30.20R

...WESTERN AND NORTH CENTRAL NEBRASKA...

CITY           SKY/WX    TMP DP  RH WIND       PRES   REMARKS
VALENTINE      CLEAR     44  34  67 CALM      30.09R
AINSWORTH      CLEAR     51  37  58 CALM      30.08S
ONEILL         CLEAR     52  41  68 CALM      30.06R
BROKEN BOW     CLEAR     52  38  58 CALM      30.06S
IMPERIAL       CLEAR     51  31  46 W5        30.14R
NORTH PLATTE   CLEAR     43  38  82 NW5       30.10R
MCCOOK         PTCLDY    58  39  49 SW8       30.10R

...EASTERN NEBRASKA...

CITY           SKY/WX    TMP DP  RH WIND       PRES   REMARKS
NORFOLK        CLEAR     60  38  43 S17       30.05S
SO SIOUX CITY  PTCLDY    52  41  66 VRB5      30.06R
TEKAMAH        CLEAR     58  32  37 S8        30.09R
COLUMBUS       CLEAR     60  39  45 S13G18    30.09S
ALBION         CLEAR     56  39  53 SE6       30.07R
OMAHA EPPLEY   PTCLDY    61  40  45 S12       30.12S
MILLARD        CLEAR     62  42  48 S5        30.13R
LINCOLN        PTCLDY    59  41  51 S13       30.14R
NEBRASKA CITY  CLEAR     55  42  60 S12       30.16R
BEATRICE       PTCLDY    59  41  52 S12       30.16R
FALLS CITY     CLEAR     57  40  52 S9        30.17F

...NORTHERN KANSAS...

CITY           SKY/WX    TMP DP  RH WIND       PRES   REMARKS
GOODLAND       CLOUDY    54  33  45 SW9       30.15S
HILL CITY      PTCLDY    60  37  42 SW8       30.13S
NORTON         CLEAR     57  30  35 S12G18    30.10S
PHILLIPSBURG   CLEAR     61  34  36 S7        30.12S
SMITH CENTER   PTCLDY    54  37  54 SE9       30.13F
HAYS           PTCLDY    58  36  43 S10       30.16S
RUSSELL        CLOUDY    56  40  55 S15       30.15S
CONCORDIA      CLEAR     58  40  51 S17G26    30.16S
SALINA         CLEAR     57  42  57 S12       30.21R
TOPEKA         CLEAR     56  42  59 S3        30.24R



USA.gov is the U.S. government's official web portal to all federal, state and local government web resources and services.